Zurück zum Katalog

STARLINK-4123

AktivKommunikationVLEO
NORAD 53539·PAYLOAD·🇺🇸 United States

Gestartet Aug 19, 2022 von Cape Canaveral Space Force Station

Loading…

Nächste Überflüge (nächste 24 Stunden)

TLE

AktuellSource: CelesTrak SupGP

Epoche: Sep 15, 2026, 02:55 UTC

1 53539C 22101N   26258.12201389 -.00664440  00000+0 -19159-1 0  2589
2 53539  53.1596 294.5176 0001401  87.8318  89.2112 15.35487396    16

Verfolge STARLINK-4123 in Echtzeit mit AllMySat

Download on the App Store